Ireland West Airport Knock, Ireland

3:06 AM IST on April 25, 2018 (GMT +0100)
Connaught

Weather History for EIKN - November, 2011

Change the Weather History Date:

Sunday, November 27, 2011

  Actual Average Record
Temperature  
Mean Temperature 44 °F -  
Max Temperature 46 °F - - ()
Min Temperature 40 °F - - ()
Degree Days  
Heating Degree Days 20    
Moisture  
Dew Point 38 °F    
Average Humidity 78    
Maximum Humidity 99    
Minimum Humidity 68    
Precipitation  
Precipitation 0.02 in - - ()
Sea Level Pressure  
Sea Level Pressure 30.12 in    
Wind  
Wind Speed 13 mph ()    
Max Wind Speed 27 mph    
Max Gust Speed 28 mph    
Visibility 7.5 miles    
Events Rain    
T = Trace of Precipitation, MM = Missing Value Source: Averaged Metar Reports

Daily Weather History Graph

Daily Weather History Graph

Search for Another Location

Airport or City:

Astronomy

Nov. 27, 2011 Rise Set
Actual Time 8:23 AM GMT 4:21 PM GMT
Civil Twilight 7:41 AM GMT 5:03 PM GMT
Nautical Twilight 6:57 AM GMT 5:47 PM GMT
Astronomical Twilight 6:14 AM GMT 6:30 PM GMT
Moon 10:43 AM GMT (11/27) 6:40 PM GMT (11/27)
Length of Visible Light 9h 21m
Length of Day
7h 58m
Waxing Crescent, 7% of the Moon is Illuminated
Nov 27
Waxing Crescent
Dec 2
First Quarter
Dec 10
Full
Dec 18
Last Quarter
Dec 24
New

Hourly Weather History & Observations

Time (GMT) Temp. Windchill Dew Point Humidity Pressure Visibility Wind Dir Wind Speed Gust Speed Precip Events Conditions
12:00 AM 49 °F - 49 °F 99% 29.64 in - WSW 26.8 mph - -  
6:00 AM 42 °F - 37 °F 76% 29.97 in - WNW 20.1 mph - -  
8:00 AM 42.8 °F 33.5 °F 33.8 °F 70% 30.04 in 6.2 mi WNW 23.0 mph - N/A Rain Light Rain Showers
8:30 AM 42.8 °F 34.3 °F 35.6 °F 76% 30.04 in 6.2 mi WNW 19.6 mph - N/A   Scattered Clouds
9:00 AM 42.8 °F 38.6 °F 35.6 °F 76% 30.09 in 6.2 mi West 6.9 mph - N/A   Scattered Clouds
9:30 AM 42.8 °F 40.1 °F 37.4 °F 81% 30.09 in 6.2 mi WSW 4.6 mph - N/A Rain Light Rain Showers
10:00 AM 42.8 °F 37.5 °F 37.4 °F 81% 30.12 in 6.2 mi West 9.2 mph - N/A   Scattered Clouds
10:30 AM 42.8 °F 37.5 °F 37.4 °F 81% 30.15 in 6.2 mi West 9.2 mph - N/A   Scattered Clouds
11:00 AM 44.6 °F 38.8 °F 35.6 °F 71% 30.15 in 6.2 mi West 11.5 mph - N/A   Scattered Clouds
11:30 AM 44.6 °F 39.7 °F 35.6 °F 71% 30.15 in 6.2 mi West 9.2 mph - N/A   Scattered Clouds
12:00 PM 45 °F - 38 °F 68% 30.18 in 19 mi West 11.2 mph - -   Partly Cloudy
12:00 PM 44.6 °F 39.2 °F 37.4 °F 76% 30.15 in 6.2 mi West 10.4 mph - N/A   Scattered Clouds
12:30 PM 44.6 °F 38.8 °F 37.4 °F 76% 30.15 in 6.2 mi WSW 11.5 mph - N/A   Scattered Clouds
1:00 PM 46.4 °F 40.7 °F 37.4 °F 71% 30.15 in 6.2 mi West 12.7 mph - N/A   Scattered Clouds
1:30 PM 46.4 °F 40.4 °F 39.2 °F 76% 30.18 in 6.2 mi WSW 13.8 mph - N/A   Scattered Clouds
2:00 PM 46.4 °F 40.7 °F 39.2 °F 76% 30.18 in 5.0 mi WSW 12.7 mph - N/A   Scattered Clouds
2:30 PM 44.6 °F 38.8 °F 41.0 °F 87% 30.18 in 6.2 mi West 11.5 mph - N/A Rain Light Rain Showers
3:00 PM 44.6 °F 38.4 °F 39.2 °F 81% 30.18 in 6.2 mi West 12.7 mph - N/A   Partly Cloudy
3:30 PM 44.6 °F 37.4 °F 37.4 °F 76% 30.21 in 6.2 mi WSW 16.1 mph 27.6 mph N/A   Scattered Clouds
4:00 PM 42.8 °F 36.6 °F 39.2 °F 87% 30.21 in 6.2 mi WSW 11.5 mph - N/A   Partly Cloudy
6:00 PM 41 °F - 37 °F 80% 30.24 in 19 mi SSW 6.7 mph - - Rain Light Rain Showers